{"data":{"norad_id":58907,"epoch":"2026-09-22T21:18:02.605824Z","epoch_age_seconds":46041,"freshness":"FRESH","line1":"1 58907U 24023C   26265.88753016  .00001264  00000+0  12925-3 0  9993","line2":"2 58907  50.0013 221.7854 0006023  55.2530 304.8980 14.97417516143960","mean_motion":14.97417516,"eccentricity":0.0006023,"inclination_deg":50.0013,"raan_deg":221.7854,"arg_perigee_deg":55.253,"mean_anomaly_deg":304.898,"bstar":0.00012925,"rev_number":14396,"period_min":96.165564020289,"perigee_km":570.6913036745,"apogee_km":579.06690687492,"semimajor_km":6953.0161052747,"source":"CELESTRAK","updated_at":"2026-09-23T09:00:19.070074Z"}}